{"data":{"norad_id":53472,"intl_designator":"2022-099H","name":"STARLINK-4447","alt_names":[],"object_type":"PAYLOAD","status":"ACTIVE","operator":null,"country":"US","launch_date":"2022-08-12","launch_site_code":"AFWTR","launch_vehicle":null,"mission":null,"orbit_class":"UNKNOWN","rcs_meters":null,"size_class":null,"mass_kg":null,"dimensions":null,"purposes":["comms"],"wikipedia_slug":null,"has_3d_model":false,"image_url":null,"decayed_at":null,"tle_current":{"epoch":"2026-09-21T00:00:02.000160Z","epoch_age_seconds":35825,"freshness":"FRESH","line1":"1 53472U 22099H   26264.00002315 -.00027356  00000+0 -13416-2 0  9995","line2":"2 53472  97.2846  17.8313 0001481 105.4231  20.2605 15.18177933  5793","mean_motion":15.18177933,"eccentricity":0.0001481,"inclination_deg":97.2846,"raan_deg":17.8313,"arg_perigee_deg":105.4231,"mean_anomaly_deg":20.2605,"bstar":-0.0013416,"rev_number":579,"period_min":94.85054213339,"perigee_km":510.32712827763,"apogee_km":512.36779357495,"semimajor_km":6889.4844609263,"source":"CELESTRAK","updated_at":"2026-09-21T09:00:32.887624Z"}}}